Regional Weather Roundup
Issued by NWS

Home | Current Version | Previous Version | Text Only | Print | Product List | Glossary Off
Versions: 1 2 3 4 5 6 7 8 9 10 11 12 13 14 15 16 17 18 19 20 21 22 23 24 25 26 27 28 29 30 31 32 33 34 35 36 37 38 39 40 41 42 43 44 45 46 47 48 49 50

000
ASUS43 KLSX 281407
RWRMO

WEATHER SUMMARY FOR MISSOURI
NATIONAL WEATHER SERVICE SPRINGFIELD MO
900 AM CDT THU MAY 28 2015

NOTE: "FAIR" INDICATES FEW OR NO CLOUDS BELOW 12,000 FEET WITH NO
       SIGNIFICANT WEATHER AND/OR OBSTRUCTIONS TO VISIBILITY.
       CURRENT SKY AND/OR WEATHER CONDITIONS ARE NOT AVAILABLE FOR
       CHILLICOTHE AND FARMINGTON.

MOZ001>031-035>038-043-044-053-054-281500-
...NORTHERN AND WESTERN MISSOURI...

CITY           SKY/WX    TMP DP  RH WIND       PRES   REMARKS
KANSAS CTY INT CLOUDY    64  63  96 NE12      30.08F
KANSAS C DTWN  CLOUDY    66  61  84 E13       30.07F
LEE`S SUMMIT   PTSUNNY   66  63  90 NE10      30.09F
ST JOSEPH      LGT RAIN  64  62  93 E9        30.08F
CHILLICOTHE      N/A     68  60  75 VRB3      30.13S
KIRKSVILLE     CLOUDY    69  62  78 SE9       30.15F

$$
MOZ066>068-077>081-088>096-101>105-281500-
...SOUTHWEST MISSOURI...

CITY           SKY/WX    TMP DP  RH WIND       PRES   REMARKS
SPRINGFIELD    CLOUDY    71  67  87 S9        30.11S
JOPLIN         PTSUNNY   73  66  78 CALM      30.09F

$$
MOZ032>034-039>042-045>050-055>058-069>072-281500-
...CENTRAL MISSOURI...

CITY           SKY/WX    TMP DP  RH WIND       PRES   REMARKS
COLUMBIA       CLOUDY    71  61  70 SE10      30.13F
JEFFERSON CITY CLOUDY    71  62  73 E7        30.12F
ROLLA          PTSUNNY   68  66  93 E7        30.13S
SEDALIA        CLOUDY    68  62  81 SE7       30.12F
WHITEMAN AFB   PTSUNNY   67  62  84 S6        30.10S
WARRENSBURG    PTSUNNY   68  63  83 CALM      30.11R
OSAGE BEACH    CLOUDY    70  64  83 S5        30.12S

$$
MOZ051-052-059>065-281500-
...EAST CENTRAL MISSOURI...

CITY           SKY/WX    TMP DP  RH WIND       PRES   REMARKS
ST LOUIS INTL  PTSUNNY   74  60  61 E10       30.16F
SPIRIT OF STL  MOSUNNY   73  66  78 SE6       30.14F
ST CHARLES     MOSUNNY   74  59  59 SE13      30.15S

$$
MOZ072>076-082>087-097>100-106>115-281500-
...SOUTH CENTRAL AND SOUTHEAST MISSOURI...

CITY           SKY/WX    TMP DP  RH WIND       PRES   REMARKS
CAPE GIRARDEAU PTSUNNY   72  68  87 S5        30.17S
FARMINGTON     PTSUNNY   70  66  88 SW7       30.20S
POPLAR BLUFF   CLOUDY    70  67  90 CALM      30.16S
WEST PLAINS    CLOUDY    68  67  96 SE6       30.16S FOG

$$


USA.gov is the U.S. government's official web portal to all federal, state and local government web resources and services.